sat.trackr.live / text

‹ back to catalog

STARLINK-33740

NORAD 63451 · 2025-069U

PAYLOAD ACTIVE UNKNOWN

§ Identity

Operator
Country
US
Launch date
2025-04-04
Launch site
AFWTR
Launch vehicle
Mass (kg)
RCS (m²)

Purposes: comms

External: N2YO · Heavens-Above · Gunter

§ Orbital elements

Epoch: 2026-09-20T10:04:18.763968Z

Period
93.85 min
Inclination
53.1587°
Eccentricity
0.0001045
Mean motion
15.34403367 rev/d
Perigee alt
462.0 km
Apogee alt
463.4 km
Semi-major
6,840.8 km
B*
3.3596e-4
RAAN
308.3787°
Arg perigee
73.1568°
Mean anomaly
286.9549°
Rev number
8,324

§ Raw data

STARLINK-337401 63451U 25069U   26263.41966162  .00010993  00000+0  33596-3 0  99952 63451  53.1587 308.3787 0001045  73.1568 286.9549 15.34403367 83242

JSON: /api/v1/satellites/63451 · /tle

For live sub-satellite position, see the globe view (requires WebGL).

§ Visibility from observer

Set your observer location to see the next 7 days of passes ≥ 10°. The values pass through the URL so the page stays shareable.

No JS? Fill the form by hand. The geolocation button needs JavaScript.